[Date Prev][Date Next][Thread Prev][Thread Next][Date Index][Thread Index]

[jamsat-news:1350] jas2info #203



========================   最新情報   ==============================

        Last updated :Sat14Oct2000  17:00 (JST) #203

====================================================================
   
  1)アマチュア通信衛星情報 FOシリーズの軌道要素、テレメトリ、
   QSOの状況等をまとめてみました.
   
   FO−29の10月14日(土)の12:04(JST)のパスでは
  JARLのホームぺージのとうりデジトーカの運用で鶯と女性のいつもの
  アナウンスでした。
  今まで観測したテレメトリーと分析結果を掲載しておきます.   

  AS20415C1  05Oct2000
  11:32-11:45(JST) 
  Freq.435.802-.788MHz
                                                   3 91 B0 63 B9 B7 B8 B9 B7
  HI HI A6 C7 88 DD 00 75 10 0D 00 0E 90 40       93 91 B0 7D B9 B7 B8 B9 B7 
  HI HI A6 C7 81 DD 00 75 0A 0D 00 0E 94 65 7C 60 93 91 B0 7F B8 B7 B8 B8 B7 
  HI HI A6 C7 90 DD  5 75 10 0D 00 0E 68 5D    60 92 91 B0 B8 B8 B7 B8 B8 B7
  HI EE A6 C7 90 DD 0B 65 10 2D 00 0E 43 93 55 60 92 91 B0 B8 B8 B7 B8 B8 B7 
  HI HI A6 C7 90 D0 00 75 10 0D 00 0E 6        60 92 B1 B0 B8 B8 B6 B8 B8 B7 
  HI HI A6 C7 90 D0 00 75 10 0D 00 0E          60 92 B1 B0 B8 B8 B6 B7 B8 B7
  HI HI A6 C7 90 D0 0B 75 10 0D 00 0E          60 92 B1 B0 B8 B8 B6 B7 B8 B7
  HI HI A6 C7 90 DD    75 10 0D 00 0E A0 5E 8C 60 92 81 B0 B8 B8 B6 B7 B7 B7 
  HI HI A6 C7 90 DD 0B 75 10 0D 00 0E 75 93 74 60 92 80 B0 B9 B8 B5 B7 B7 B7 
  HI HI A6 C7 90 DD 0B 75 10 2D 00 0E 55 9A 7B 5F 92 90 B0 7B B7 B5 B6 B7 B7 
  HI HI A6 C7 90 DD 10 75 10 0D 00 0E A3 5B 81 5F 92 90 B0 70 B7 B5 B6 B7 B7 
  HI HI A6 C7 90 DD  5 75 10 0D 00 0E 7E A6 6D 60 93 91 B0 8B B7 B5 B6 B7 B7 
  HI HI A6 C7 90 DD 1B 75 10 0D 00 0E 55 0E 5E 60 91 B7 B0 7B B7 B5 B6 B7 B7 
  HI HI A6 C7 90 DD 00 75 10 0D 00 0E A5 56 87 60 91 90 B0 76 B7 B4 B6 B7 B7 
  HI HI A6 C7 90 DD 05 75 10 0D 00 0E 75 B2 5E 60 92 90 B0 54 B7 B4 B6 B7 B7 
  HI HI A6 C7 90 DD 04 75 10 0D 00 0E 55 66 70 60 92 90 B0 5B B7 B4 B6 B7 B7
 ------------------------ FO-29の軌道要素 ------------------------------        
 
  ■ 軌道要素1:「jamsat−keps:1037」より         
          SB KEPS @ AMSAT  $ORB00286.N
          2Line Orbital Elements 00286.AMSAT

 HR AMSAT ORBITAL ELEMENTS FOR AMATEUR SATELLITES IN NASA FORMAT
 FROM WA5QGD FORT WORTH,TX October 12, 2000
 SEND SUBSCRIBE/UNSUBSCRIBE TO majordomo@amsat.org ONLY
 BID: ORB00286.N

 DECODE 2-LINE ELSETS WITH THE FOLLOWING KEY:
 1 AAAAAU 00  0  0 BBBBB.BBBBBBBB  .CCCCCCCC  00000-0  00000-0 0  DDDZ
 2 AAAAA EEE.EEEE FFF.FFFF GGGGGGG HHH.HHHH III.IIII JJ.JJJJJJJJKKKKKZ
 KEY: A-CATALOGNUM B-EPOCHTIME C-DECAY D-ELSETNUM E-INCLINATION F-RAAN
 G-ECCENTRICITY H-ARGPERIGEE I-MNANOM J-MNMOTION K-ORBITNUM Z-CHECKSUM

 TO ALL RADIO AMATEURS BT

 FO-29
 1 24278U 96046B   00286.79504057  .00000033  00000-0  73552-4 0  3649
 2 24278  98.5759 179.1385 0350511 282.6902  73.5279 13.52741987205193

 ■ 軌道要素2:「jamsat−keps:1038」より                    
         SB KEPS @ AMSAT  $ORB00286.O
         Orbital Elements  00286.OSCAR

 HR AMSAT ORBITAL ELEMENTS FOR OSCAR SATELLITES
 FROM WA5QGD FORT WORTH,TX October 12, 2000
 SEND SUBSCRIBE/UNSUBSCRIBE TO majordomo@amsat.org ONLY
 BID: ORB00286.O
 TO ALL RADIO AMATEURS BT

  Satellite: FO-29
 Catalog number: 24278
 Epoch time:      00286.79504057
 Element set:     364
 Inclination:       98.5759 deg
 RA of node:       179.1385 deg
 Eccentricity:    0.0350511
 Arg of perigee:   282.6902 deg
 Mean anomaly:      73.5279 deg
 Mean motion:   13.52741987 rev/day
 Decay rate:        3.3e-07 rev/day^2
 Epoch rev:           20519
 Checksum:              335

-------------------  FO-29(JAS-2)のテレメトリに関する情報  ---------------------- 
 
2)上記テレメトリーの最後の行を分析しておきます.
 
  AS20415C1  05Oct2000
  11:32-11:45(JST) 
  Freq.435.802-.788MHz
       
  HI HI A6 C7 90 DD 04 75 10 0D 00 0E 55 66 70 60 92 90 B0 5B B7 B4 B6 B7 B7
 
テレメトリ  内 容      換算算値 単 位  

 3C	磁気センサーZ軸	=	41666.7	[nT]	
  3D	磁気センサX軸	=	50000.0	[nT]	
  4A	太陽電池発生電流	=	 1098.0	[mA]	
  4B	B充放電電流	= 	 -118.4	[mA]	
  4C	B端子電圧	=	  15.7	[V]	
  4D	B中間端子電圧	=	   6.9	[V]	
  5A	バス電圧	    =	  17.3	[V]	
  5B	JTA送信電力	= 	  493.4	[mW]	
  5C	構体温度1	=	   10.8	[℃]	
  5D	構体温度2	=	   12.0	[℃]	
  6A	構体温度3	=	   11.2	[℃]	
  6B	構体温度4	=	   10.8	[℃]	
  6C	Bセル温度	=	   10.8	[℃]
	
 ===========================  FO-29(ふじ3号)のQSO情報等 ======================
   
 3)[jamsat-bb:5805] FO-29デジトーカー運用開始fmJG1LDVの白子 悟朗氏が下記のように
   投稿されてましたので転載させて頂きました.

shirako >皆さん。  JG1LDV白子/2000-10-06です。
shirako >
shirako >今日わ。
shirako >
shirako >FO-29「ふじ3号」は、今朝のJAのパスからJARLの予告通り
shirako >デジトーカー運用になり、快調に”?”が囀っています。
shirako >
shirako >P3-Dや移動運用でのアマチュア衛星通信の話題が多い昨今
shirako >です。いろいろな機会(学校の文化祭等のイベントほか)を利
shirako >用して、多くの皆さんにぜひアマチュア衛星通信の楽しさや宇
shirako >宙を身近に感じてもらいませんか!
shirako >
shirako >PS:
shirako >若田宇宙飛行士搭乗のSTS-92は打ち上げが遅れています
shirako >が宇宙開発事業団のHPから、NASA-TVへのリンクや可視
shirako >観測の情報が得られます。ご利用下さい。
shirako >*宇宙開発事業団STS-92ホームページ
shirako >http://jem.tksc.nasda.go.jp/iss/3a/index.html
shirako >
shirako >下記URLからもリンクしています。
shirako >========================
shirako >JG1LDV 白子  悟朗
shirako >宇宙開発に関する話題を発信している、
shirako >SSCnote.ホームページ:宇宙をもっと身近に!のURLは、
shirako >Homepage:http://www2s.biglobe.ne.jp/~gshirako/
shirako >========================

 ===============================================================================
   4)JARL のホームページに運用予定が記載されていましたのでご紹介します.
       ( http://www.jarl.or.jp/Japanese/3_Fuji/new/uy.htm )

        ■ ふじ3号/FOー29/JAS-2 ■  
   
     *** 運用予定について *** 
   
 
 ※10月07日 〜 11月05日デジトーカ運用
 
 ※夏休み期間中のデジトーカ運用が大変好評を得ましたので,秋の行事に併せて
  約1ヶ月間デジトーカ運用を行います。なお,デジトーカの音声メッセージは
  新音声データをUPする予定ですのでご期待ください。

 * 9月25日(月)から10月01日(日)迄,デジタル系1200bpsメール
  ボックス運用でしたが,「ふじ3号」のコンピュータにメモリーエラーが
  発生したため,コンピュータのリセット及びプログラムのアップロード作業を
  行いますので,予定を変更して10月5日(木)迄,アナログ系運用の連続運用
  と致します

  *なお,運用予定は都合により変更することがありますのでご了承願います。

 照会先 : lab@jarl.or.jp

 最新の情報はテレホンサービス(03−3942−1000)をお聞きください。  
 以後の運用につきましては11月上旬にお知らせいたします。
 
 ふじ2号(JAS−1b)の運用 

 CWテレメトリの機能に障害が発生しています。詳細は「ふじ2号」の現況をご覧ください。
 運用はアナログ系の連続運用とします。 
 
-----------------------    FO−20(JAS-1b)道要素   -------------------------
  5)
  ■ 軌道要素1 :出典はFO-29「ふじ3号」に同じ.
  
  FO-20
  1 20480U 90013C   00284.84578868  .00000048  00000-0  17586-3 0 02798
  2 20480 099.0701 033.6789 0540627 153.4491 209.5412 12.83281112500118
 
  ■ 軌道要素2 :出典はFO−29「ふじ3号」に同じ.
               
  Satellite: FO-20
 Catalog number: 20480
 Epoch time:      00284.84578868
 Element set:    0279
 Inclination:      099.0701 deg
 RA of node:       033.6789 deg
 Eccentricity:    0.0540627
 Arg of perigee:   153.4491 deg
 Mean anomaly:     209.5412 deg
 Mean motion:   12.83281112 rev/day
 Decay rate:        4.8e-07 rev/day^2
 Epoch rev:           50011
 Checksum:              297

 --------------------------------------------------------------------------------
 
         ■ ふじ2号/FO−20/JAS-1b ■      
            
          「ふじ2号」 現況                                                                                  
             
   JAS-1b(ふじ2号)のCWテレメトリ信号に,1997年10月12日12時(JST)の
 日本上空通過時,3桁の数字が繰り返されるはずが3個の長音の繰り返しとなっているという
 異常が発見されました。この不具合は次の通過時からは回復していましたが13日15時20分の
 通過時に再び観測されました。現在はA0の送信が続いています。衛星のアナログ系中継モード
 動作は異常が無く,正常時のテレメトリ内容からは衛星の動作に異常は認められません。従って,
 直ちに衛星のミッションに影響することは無いと予想されますので,当面はアナログ系中継
 モードを継続します。衛星は既に打ち上げてから7年8ヶ月を経ておりますので,今後は監視を
 強化する予定です。アマチュア各位のレポートをお待ちします。
 -------------------------------------------------------------------------------- 
  1997年10月14日 00時35分 確認のテレメトリ音 151 KB (A0) 
  1997年10月14日 11時10分 確認のテレメトリ音 216 KB (異常キーイング) 

  以上 JARLのホ−ムページの http://www.jarl.or.jp/Japanese/3_Fuji/new/fuji.htm

===================== FO-20 ふじ2号 のテレメトリ観測結果 ====================

   6月3日(土)の14:15(JST)のパスの観測結果では以前観測した結果よりも変動のない
 単一周波数でドップラー効果で周波数がずれていくのみの状態に戻っておりました。
                                         
   =============   JAS-2 (ふじ3号)と現在までの情報   ===========
  
  A.電話によるふじ3号の運用情報
      社団法人日本アマチュア連盟によるサービス
           TEL .   03− 3942 − 1000
  B.アマチュア無線FAXサービス
      JARLによるふじ3号の軌道情報(オービットカレンダー)
         FAX No.  03− 3233 −0055
  C.WWWブラウザで情報を簡単に見れる人のためにJAS−2
     ふじ3号の衛星としての運用されるまでの名前)の概要、打ち上げ
     までの状況、運用中における状況を説明したホームページを紹介し
     ておきます.
     社団法人日本アマチュア無線連盟(JARL)のホームページ

          http://www.jarl.or.jp/Japanese/3_Fuji/jasmenu.htm
 
     宇宙開発事業団(NASDA)ホームページ 
          http://www.nasda.go.jp/
         打上げ衛星 :地球観測プラットフォーム技術衛星(ADEOS) 
                       アマチュア衛星3号(JAS-2)
          http://yyy.tksc.nasda.go.jp/Home/Press/Press-j/jas-2_j.html        

  D.JAMSATによる軌道情報の活用
        JAMSATのホームページまたはjamsat−kepsの軌道要素より
      衛星の軌道情報を得る.
     JAMSATホームページ
               URL    http://www.jamsat.or.jp
       上記ホームページでは各地で行われるアマチュア通信衛星に関する
      ミューティングのお知らせや世界のアマチュア衛星に関する情報が
      満載されています.
 ========================================================================  
     JAMSATのメンバーのご協力によりJH6MME(高山 秀造)が
    執筆・編集を担当しております.ご指摘の意見、疑問やこのようにしたら
    というアイデアがありましたら小さなことでもかまいませんので気軽に下
    記アドレスまでご連絡ください.jamsat−newsからjas2
    infoへの転載をJH4PHW局坂井さんに担当して頂いております.  
                  E-mail : jh6mme@jamsat.or.jp : jh4phw@jamsat.or.jp
 ===============================   END  ===============================